Retour au catalogue

DONGPO 16

ActifScienceSSO
NORAD 68201·PAYLOAD·🇨🇳 China
Ce nom de satellite n'a pas encore été confirmé par des sources officielles.

Lancé Mar 16, 2026 depuis Jiuquan Satellite Launch Center

Loading…

Prochains Passages (prochaines 24 heures)

TLE

FraisSource: Space-Track

Époque: Sep 14, 2026, 14:54 UTC

1 68201U 26052D   26257.62141995  .00004960  00000-0  29021-3 0  9997
2 68201  97.5256 331.1803 0011245   9.0484 351.0947 15.12255352 27560

Suivez DONGPO 16 en temps réel avec AllMySat

Download on the App Store